Burbank, CA

5:11 PM PDT on June 21, 2018 (GMT -0700)
Burbank-Glendale-Pasadena

Weather History for KBUR - October, 2017

Change the Weather History Date:

Monday, October 9, 2017

  Actual Average Record
Temperature  
Mean Temperature 74 °F 68 °F  
Max Temperature 86 °F 81 °F 104 °F (2015)
Min Temperature 61 °F 56 °F 43 °F (1949)
Degree Days  
Heating Degree Days 0 1  
Month to date heating degree days 0 9  
Since 1 July heating degree days 3 15  
Cooling Degree Days 9 4  
Month to date cooling degree days 58 43  
Year to date cooling degree days 1685 1174  
Growing Degree Days 23 (Base 50)    
Moisture  
Dew Point 43 °F    
Average Humidity 43    
Maximum Humidity 78    
Minimum Humidity 7    
Precipitation  
Precipitation 0.00 in 0.03 in 0.10 in (2013)
Month to date precipitation 0.00 0.22  
Year to date precipitation 9.62 13.09  
Sea Level Pressure  
Sea Level Pressure 29.85 in    
Wind  
Wind Speed 5 mph (SSE)    
Max Wind Speed 13 mph    
Max Gust Speed 17 mph    
Visibility 10 miles    
Events      
T = Trace of Precipitation, MM = Missing Value Source: NWS Daily Summary

Daily Weather History Graph

Daily Weather History Graph

Search for Another Location

Airport or City:

Astronomy

Oct. 09, 2017 Rise Set
Actual Time 6:54 AM PDT 6:26 PM PDT
Civil Twilight 6:29 AM PDT 6:51 PM PDT
Nautical Twilight 6:00 AM PDT 7:20 PM PDT
Astronomical Twilight 5:31 AM PDT 7:49 PM PDT
Moon 9:49 PM PDT (10/9) 11:01 AM PDT (10/9)
Length of Visible Light 12h 22m
Length of Day
11h 32m
Waning Gibbous, 80% of the Moon is Illuminated
Oct 9
Waning Gibbous
Oct 12
Last Quarter
Oct 19
New
Oct 27
First Quarter
Nov 3
Full

Hourly Weather History & Observations

Time (PDT) Temp. Dew Point Humidity Pressure Visibility Wind Dir Wind Speed Gust Speed Precip Events Conditions
12:01 AM 64.0 °F 57.0 °F 78% 29.80 in 10.0 mi SSE 5.8 mph - N/A   Overcast
12:38 AM 64.0 °F 57.0 °F 78% 29.80 in 10.0 mi SSE 6.9 mph - N/A   Overcast
12:53 AM 64.0 °F 57.0 °F 78% 29.77 in 10.0 mi SSE 6.9 mph - N/A   Overcast
1:53 AM 64.0 °F 55.9 °F 75% 29.79 in 10.0 mi SE 5.8 mph - N/A   Overcast
2:53 AM 64.0 °F 55.9 °F 75% 29.79 in 10.0 mi East 3.5 mph - N/A   Mostly Cloudy
3:07 AM 64.0 °F 55.0 °F 73% 29.82 in 10.0 mi Calm Calm - N/A   Scattered Clouds
3:44 AM 63.0 °F 55.0 °F 75% 29.83 in 10.0 mi SSE 4.6 mph - N/A   Mostly Cloudy
3:53 AM 63.0 °F 55.0 °F 75% 29.80 in 10.0 mi SSE 5.8 mph - N/A   Overcast
4:53 AM 64.0 °F 55.0 °F 73% 29.82 in 10.0 mi SE 5.8 mph - N/A   Overcast
5:53 AM 63.0 °F 55.0 °F 75% 29.83 in 10.0 mi SSE 3.5 mph - N/A   Scattered Clouds
6:53 AM 62.1 °F 55.0 °F 78% 29.85 in 10.0 mi Variable 3.5 mph - N/A   Clear
7:53 AM 62.1 °F 54.0 °F 75% 29.86 in 9.0 mi Calm Calm - N/A   Clear
8:53 AM 64.9 °F 55.0 °F 70% 29.89 in 10.0 mi South 3.5 mph - N/A   Clear
9:53 AM 66.9 °F 53.1 °F 61% 29.89 in 10.0 mi Calm Calm - N/A   Clear
10:53 AM 73.0 °F 48.0 °F 41% 29.88 in 10.0 mi Variable 3.5 mph - N/A   Clear
11:53 AM 77.0 °F 44.1 °F 31% 29.88 in 10.0 mi SE 6.9 mph - N/A   Clear
12:53 PM 79.0 °F 48.9 °F 35% 29.87 in 10.0 mi Variable 4.6 mph - N/A   Clear
1:53 PM 82.9 °F 39.9 °F 22% 29.84 in 10.0 mi WSW 5.8 mph - N/A   Clear
2:53 PM 84.0 °F 33.1 °F 16% 29.83 in 10.0 mi SSE 12.7 mph - N/A   Clear
3:53 PM 84.9 °F 32.0 °F 15% 29.83 in 10.0 mi SSW 8.1 mph - N/A   Clear
4:53 PM 84.9 °F 30.9 °F 14% 29.82 in 10.0 mi SSE 8.1 mph - N/A   Clear
5:53 PM 82.9 °F 30.9 °F 15% 29.84 in 10.0 mi SSW 5.8 mph - N/A   Clear
6:53 PM 80.1 °F 36.0 °F 20% 29.86 in 10.0 mi SSE 4.6 mph - N/A   Clear
7:53 PM 77.0 °F 12.9 °F 9% 29.88 in 10.0 mi North 5.8 mph - N/A   Clear
8:53 PM 75.9 °F 9.0 °F 8% 29.89 in 10.0 mi NE 4.6 mph - N/A   Clear
9:53 PM 72.0 °F 14.0 °F 11% 29.91 in 10.0 mi East 3.5 mph - N/A   Clear
10:53 PM 69.1 °F 30.0 °F 23% 29.92 in 10.0 mi Calm Calm - N/A   Clear
11:53 PM 64.9 °F 26.1 °F 23% 29.92 in 10.0 mi NNW 3.5 mph - N/A   Clear